Time,TemperatureF,DewpointF,PressureIn,WindDirection,WindDirectionDegrees,WindSpeedMPH,WindSpeedGustMPH,Humidity,HourlyPrecipIn,Conditions,Clouds,dailyrainin,SoftwareType,DateUTC
2013-04-05 00:02:00,53.6,53.6,30.04,SE,146,0.0,0.0,100,0.00,,,0.02,Wunderground v.1.15,2013-04-05 07:02:00,
2013-04-05 00:07:00,53.6,53.6,30.04,SE,146,0.0,0.0,100,0.00,,,0.02,Wunderground v.1.15,2013-04-05 07:07:00,
2013-04-05 00:12:00,53.6,53.6,30.04,SE,146,0.0,0.0,100,0.00,,,0.02,Wunderground v.1.15,2013-04-05 07:12:00,
2013-04-05 00:17:00,53.6,53.6,30.04,SE,146,0.0,0.0,100,0.00,,,0.02,Wunderground v.1.15,2013-04-05 07:17:00,
2013-04-05 00:22:00,53.6,53.6,30.04,West,277,1.0,1.0,100,0.00,,,0.02,Wunderground v.1.15,2013-04-05 07:22:00,
2013-04-05 00:28:00,53.5,53.5,30.04,West,276,0.0,1.0,100,0.00,,,0.02,Wunderground v.1.15,2013-04-05 07:28:00,
2013-04-05 00:32:00,53.5,53.5,30.05,West,276,0.0,0.0,100,0.00,,,0.02,Wunderground v.1.15,2013-04-05 07:32:00,
2013-04-05 00:37:00,53.5,53.5,30.05,West,276,0.0,0.0,100,0.00,,,0.02,Wunderground v.1.15,2013-04-05 07:37:00,
2013-04-05 00:42:00,53.5,53.5,30.05,West,276,0.0,0.0,100,0.00,,,0.03,Wunderground v.1.15,2013-04-05 07:42:00,
2013-04-05 00:47:00,53.5,53.5,30.05,SW,229,0.0,1.0,100,0.00,,,0.03,Wunderground v.1.15,2013-04-05 07:47:00,
2013-04-05 00:52:00,53.3,53.3,30.05,WNW,297,0.0,4.0,100,0.00,,,0.03,Wunderground v.1.15,2013-04-05 07:52:00,
2013-04-05 00:57:00,53.3,53.3,30.05,WNW,297,0.0,4.0,100,0.00,,,0.03,Wunderground v.1.15,2013-04-05 07:57:00,
2013-04-05 01:02:00,53.3,53.3,30.05,WNW,297,1.0,2.0,100,0.00,,,0.00,Wunderground v.1.15,2013-04-05 08:02:00,
2013-04-05 01:08:00,53.2,53.2,30.05,NNW,331,0.0,2.0,100,0.00,,,0.00,Wunderground v.1.15,2013-04-05 08:08:00,
2013-04-05 01:13:00,53.1,53.1,30.05,NNW,331,0.0,0.0,100,0.00,,,0.00,Wunderground v.1.15,2013-04-05 08:13:00,
2013-04-05 01:18:00,53.1,53.1,30.05,NW,318,0.0,2.0,100,0.00,,,0.00,Wunderground v.1.15,2013-04-05 08:18:00,
2013-04-05 01:23:00,52.9,52.9,30.05,NW,318,0.0,0.0,100,0.00,,,0.00,Wunderground v.1.15,2013-04-05 08:23:00,
2013-04-05 01:28:00,52.8,52.8,30.05,NW,318,0.0,1.0,100,0.00,,,0.00,Wunderground v.1.15,2013-04-05 08:28:00,
2013-04-05 01:33:00,52.6,52.6,30.06,NW,318,0.0,2.0,100,0.00,,,0.00,Wunderground v.1.15,2013-04-05 08:33:00,
2013-04-05 01:38:00,52.6,52.6,30.06,WNW,292,0.0,2.0,100,0.00,,,0.00,Wunderground v.1.15,2013-04-05 08:38:00,
2013-04-05 01:43:00,52.5,52.5,30.06,WNW,291,0.0,1.0,100,0.00,,,0.00,Wunderground v.1.15,2013-04-05 08:43:00,
2013-04-05 01:48:00,52.5,52.5,30.06,WNW,291,0.0,1.0,100,0.00,,,0.00,Wunderground v.1.15,2013-04-05 08:48:00,
2013-04-05 01:53:00,52.5,52.5,30.06,WNW,291,0.0,0.0,100,0.00,,,0.00,Wunderground v.1.15,2013-04-05 08:53:00,
2013-04-05 01:58:00,52.5,52.5,30.06,WNW,291,0.0,2.0,100,0.00,,,0.00,Wunderground v.1.15,2013-04-05 08:58:00,
2013-04-05 02:03:00,52.5,52.5,30.06,WNW,292,0.0,1.0,100,0.00,,,0.00,Wunderground v.1.15,2013-04-05 09:03:00,
2013-04-05 02:08:00,52.6,52.6,30.06,WNW,292,0.0,1.0,100,0.00,,,0.00,Wunderground v.1.15,2013-04-05 09:08:00,
2013-04-05 02:13:00,52.6,52.6,30.06,WNW,293,0.0,1.0,100,0.00,,,0.00,Wunderground v.1.15,2013-04-05 09:13:00,
2013-04-05 02:18:00,52.6,52.6,30.06,WNW,293,0.0,1.0,100,0.00,,,0.00,Wunderground v.1.15,2013-04-05 09:18:00,
2013-04-05 02:23:00,52.8,52.8,30.06,WNW,293,0.0,0.0,100,0.00,,,0.00,Wunderground v.1.15,2013-04-05 09:23:00,
2013-04-05 02:28:00,52.8,52.8,30.06,WNW,293,0.0,0.0,100,0.00,,,0.00,Wunderground v.1.15,2013-04-05 09:28:00,
2013-04-05 02:33:00,52.8,52.8,30.06,WNW,293,0.0,0.0,100,0.00,,,0.00,Wunderground v.1.15,2013-04-05 09:33:00,
2013-04-05 02:38:00,52.8,52.8,30.06,WNW,293,0.0,0.0,100,0.00,,,0.00,Wunderground v.1.15,2013-04-05 09:38:00,
2013-04-05 02:43:00,52.8,52.8,30.06,WNW,293,0.0,0.0,100,0.00,,,0.00,Wunderground v.1.15,2013-04-05 09:43:00,
2013-04-05 02:48:00,52.8,52.8,30.05,WNW,293,0.0,0.0,100,0.00,,,0.00,Wunderground v.1.15,2013-04-05 09:48:00,
2013-04-05 02:53:00,52.6,52.6,30.05,WNW,293,0.0,0.0,100,0.00,,,0.00,Wunderground v.1.15,2013-04-05 09:53:00,
2013-04-05 02:58:00,52.5,52.5,30.05,WNW,293,0.0,0.0,100,0.00,,,0.00,Wunderground v.1.15,2013-04-05 09:58:00,
2013-04-05 03:04:00,52.5,52.5,30.04,WNW,293,0.0,0.0,100,0.00,,,0.00,Wunderground v.1.15,2013-04-05 10:04:00,
2013-04-05 03:09:00,52.5,52.5,30.04,WNW,293,0.0,0.0,100,0.00,,,0.00,Wunderground v.1.15,2013-04-05 10:09:00,
2013-04-05 03:14:00,52.5,52.5,30.04,WNW,293,0.0,0.0,100,0.00,,,0.00,Wunderground v.1.15,2013-04-05 10:14:00,
2013-04-05 03:19:00,52.5,52.5,30.04,WNW,293,0.0,0.0,100,0.00,,,0.00,Wunderground v.1.15,2013-04-05 10:19:00,
2013-04-05 03:24:00,52.3,52.3,30.04,WNW,293,0.0,0.0,100,0.00,,,0.00,Wunderground v.1.15,2013-04-05 10:24:00,
2013-04-05 03:29:00,52.3,52.3,30.04,WNW,293,0.0,0.0,100,0.00,,,0.00,Wunderground v.1.15,2013-04-05 10:29:00,
2013-04-05 03:34:00,52.3,52.3,30.04,WNW,293,0.0,0.0,100,0.00,,,0.00,Wunderground v.1.15,2013-04-05 10:34:00,
2013-04-05 03:40:00,52.3,52.3,30.04,WNW,293,0.0,0.0,100,0.00,,,0.00,Wunderground v.1.15,2013-04-05 10:40:00,
2013-04-05 03:45:00,52.3,52.3,30.04,WNW,293,0.0,0.0,100,0.00,,,0.00,Wunderground v.1.15,2013-04-05 10:45:00,
2013-04-05 03:50:00,52.3,52.3,30.04,WNW,293,0.0,0.0,100,0.00,,,0.00,Wunderground v.1.15,2013-04-05 10:50:00,
2013-04-05 03:55:00,52.3,52.3,30.04,WNW,293,0.0,0.0,100,0.00,,,0.00,Wunderground v.1.15,2013-04-05 10:55:00,
2013-04-05 04:00:00,52.2,52.2,30.04,WNW,293,0.0,0.0,100,0.00,,,0.00,Wunderground v.1.15,2013-04-05 11:00:00,
2013-04-05 04:05:00,52.3,52.3,30.04,WNW,293,0.0,0.0,100,0.00,,,0.00,Wunderground v.1.15,2013-04-05 11:05:00,
2013-04-05 04:10:00,52.3,52.3,30.04,WNW,293,0.0,0.0,100,0.00,,,0.00,Wunderground v.1.15,2013-04-05 11:10:00,
2013-04-05 04:15:00,52.3,52.3,30.04,WNW,293,0.0,0.0,100,0.00,,,0.00,Wunderground v.1.15,2013-04-05 11:15:00,
2013-04-05 04:20:00,52.3,52.3,30.04,WNW,293,0.0,0.0,100,0.00,,,0.00,Wunderground v.1.15,2013-04-05 11:20:00,
2013-04-05 04:25:00,52.3,52.3,30.04,WNW,293,0.0,0.0,100,0.00,,,0.00,Wunderground v.1.15,2013-04-05 11:25:00,
2013-04-05 04:30:00,52.3,52.3,30.04,WNW,293,0.0,0.0,100,0.00,,,0.00,Wunderground v.1.15,2013-04-05 11:30:00,
2013-04-05 04:35:00,52.5,52.5,30.04,WNW,293,0.0,0.0,100,0.00,,,0.00,Wunderground v.1.15,2013-04-05 11:35:00,
2013-04-05 04:40:00,52.5,52.5,30.04,WNW,293,0.0,0.0,100,0.00,,,0.00,Wunderground v.1.15,2013-04-05 11:40:00,
2013-04-05 04:45:00,52.3,52.3,30.04,WNW,293,0.0,0.0,100,0.00,,,0.00,Wunderground v.1.15,2013-04-05 11:45:00,
2013-04-05 04:50:00,52.3,52.3,30.04,WNW,293,0.0,0.0,100,0.00,,,0.00,Wunderground v.1.15,2013-04-05 11:50:00,
2013-04-05 04:55:00,52.3,52.3,30.04,WNW,293,0.0,0.0,100,0.00,,,0.00,Wunderground v.1.15,2013-04-05 11:55:00,
2013-04-05 05:00:00,52.2,52.2,30.03,WNW,293,0.0,0.0,100,0.00,,,0.00,Wunderground v.1.15,2013-04-05 12:00:00,
2013-04-05 05:05:00,52.2,52.2,30.03,WNW,293,0.0,0.0,100,0.00,,,0.00,Wunderground v.1.15,2013-04-05 12:05:00,
2013-04-05 05:10:00,52.0,52.0,30.03,WNW,293,0.0,0.0,100,0.00,,,0.00,Wunderground v.1.15,2013-04-05 12:10:00,
2013-04-05 05:15:00,52.0,52.0,30.03,WNW,293,0.0,0.0,100,0.00,,,0.00,Wunderground v.1.15,2013-04-05 12:15:00,
2013-04-05 05:20:00,51.9,51.9,30.03,WNW,293,0.0,0.0,100,0.00,,,0.00,Wunderground v.1.15,2013-04-05 12:20:00,
2013-04-05 05:25:00,51.9,51.9,30.03,WNW,293,0.0,0.0,100,0.00,,,0.00,Wunderground v.1.15,2013-04-05 12:25:00,
2013-04-05 05:30:00,51.9,51.9,30.04,WNW,293,0.0,0.0,100,0.00,,,0.00,Wunderground v.1.15,2013-04-05 12:30:00,
2013-04-05 05:35:00,51.9,51.9,30.04,WNW,293,0.0,0.0,100,0.00,,,0.00,Wunderground v.1.15,2013-04-05 12:35:00,
2013-04-05 05:40:00,51.9,51.9,30.04,WNW,293,0.0,0.0,100,0.00,,,0.00,Wunderground v.1.15,2013-04-05 12:40:00,
2013-04-05 05:45:00,51.9,51.9,30.05,WNW,293,0.0,0.0,100,0.00,,,0.00,Wunderground v.1.15,2013-04-05 12:45:00,
2013-04-05 05:50:00,51.9,51.9,30.05,WNW,293,0.0,0.0,100,0.00,,,0.00,Wunderground v.1.15,2013-04-05 12:50:00,
2013-04-05 05:55:00,51.9,51.9,30.05,WNW,293,0.0,0.0,100,0.00,,,0.00,Wunderground v.1.15,2013-04-05 12:55:00,
2013-04-05 06:00:00,51.7,51.7,30.05,WNW,293,0.0,0.0,100,0.00,,,0.00,Wunderground v.1.15,2013-04-05 13:00:00,
2013-04-05 06:05:00,51.7,51.7,30.05,WNW,293,0.0,0.0,100,0.00,,,0.00,Wunderground v.1.15,2013-04-05 13:05:00,
2013-04-05 06:10:00,51.6,51.6,30.05,WNW,293,0.0,0.0,100,0.00,,,0.00,Wunderground v.1.15,2013-04-05 13:10:00,
2013-04-05 06:15:00,51.6,51.6,30.05,WNW,293,0.0,0.0,100,0.00,,,0.00,Wunderground v.1.15,2013-04-05 13:15:00,
2013-04-05 06:20:00,51.6,51.6,30.05,WNW,293,0.0,0.0,100,0.00,,,0.00,Wunderground v.1.15,2013-04-05 13:20:00,
2013-04-05 06:25:00,51.6,51.6,30.05,WNW,293,0.0,0.0,100,0.00,,,0.00,Wunderground v.1.15,2013-04-05 13:25:00,
2013-04-05 06:31:00,51.6,51.6,30.06,WNW,293,0.0,0.0,100,0.00,,,0.00,Wunderground v.1.15,2013-04-05 13:31:00,
2013-04-05 06:36:00,51.6,51.6,30.06,WNW,293,0.0,0.0,100,0.00,,,0.00,Wunderground v.1.15,2013-04-05 13:36:00,
2013-04-05 06:41:00,51.6,51.6,30.06,WNW,293,0.0,0.0,100,0.00,,,0.00,Wunderground v.1.15,2013-04-05 13:41:00,
2013-04-05 06:46:00,51.4,51.4,30.06,WNW,293,0.0,0.0,100,0.00,,,0.00,Wunderground v.1.15,2013-04-05 13:46:00,
2013-04-05 06:51:00,51.4,51.4,30.06,WNW,293,0.0,0.0,100,0.00,,,0.00,Wunderground v.1.15,2013-04-05 13:51:00,
2013-04-05 06:56:00,51.4,51.4,30.06,WNW,293,0.0,0.0,100,0.00,,,0.00,Wunderground v.1.15,2013-04-05 13:56:00,
2013-04-05 07:01:00,51.3,51.3,30.06,WNW,293,0.0,0.0,100,0.00,,,0.00,Wunderground v.1.15,2013-04-05 14:01:00,
2013-04-05 07:06:00,51.4,51.4,30.06,WNW,293,0.0,0.0,100,0.00,,,0.00,Wunderground v.1.15,2013-04-05 14:06:00,
2013-04-05 07:11:00,51.6,51.6,30.06,WNW,293,0.0,0.0,100,0.00,,,0.00,Wunderground v.1.15,2013-04-05 14:11:00,
2013-04-05 07:16:00,51.6,51.6,30.07,WNW,293,0.0,0.0,100,0.00,,,0.00,Wunderground v.1.15,2013-04-05 14:16:00,
2013-04-05 07:20:00,51.4,51.4,30.07,WNW,293,0.0,1.0,100,0.00,,,0.00,Wunderground v.1.15,2013-04-05 14:20:00,
2013-04-05 07:26:00,51.4,51.4,30.07,WNW,293,2.0,3.0,100,0.00,,,0.00,Wunderground v.1.15,2013-04-05 14:26:00,
2013-04-05 07:32:00,51.3,51.3,30.07,WNW,293,0.0,1.0,100,0.00,,,0.00,Wunderground v.1.15,2013-04-05 14:32:00,
2013-04-05 07:37:00,51.3,51.3,30.07,WNW,293,2.0,3.0,100,0.00,,,0.00,Wunderground v.1.15,2013-04-05 14:37:00,
2013-04-05 07:43:00,51.1,51.1,30.07,WNW,293,0.0,1.0,100,0.00,,,0.00,Wunderground v.1.15,2013-04-05 14:43:00,
2013-04-05 07:48:00,51.1,51.1,30.08,WNW,293,1.0,1.0,100,0.00,,,0.00,Wunderground v.1.15,2013-04-05 14:48:00,
2013-04-05 07:53:00,51.3,51.3,30.08,WNW,293,0.0,2.0,100,0.00,,,0.00,Wunderground v.1.15,2013-04-05 14:53:00,
2013-04-05 07:58:00,51.4,51.4,30.08,WNW,293,0.0,2.0,100,0.00,,,0.00,Wunderground v.1.15,2013-04-05 14:58:00,
2013-04-05 08:03:00,51.6,51.6,30.08,WNW,293,0.0,0.0,100,0.00,,,0.00,Wunderground v.1.15,2013-04-05 15:03:00,
2013-04-05 08:08:00,52.0,52.0,30.08,NE,36,0.0,2.0,100,0.00,,,0.00,Wunderground v.1.15,2013-04-05 15:08:00,
2013-04-05 08:13:00,52.2,52.2,30.08,NE,56,0.0,2.0,100,0.00,,,0.00,Wunderground v.1.15,2013-04-05 15:13:00,
2013-04-05 08:18:00,52.5,52.5,30.08,NE,56,0.0,2.0,100,0.00,,,0.00,Wunderground v.1.15,2013-04-05 15:18:00,
2013-04-05 08:23:00,52.3,52.3,30.08,NE,56,0.0,0.0,100,0.00,,,0.00,Wunderground v.1.15,2013-04-05 15:23:00,
2013-04-05 08:28:00,52.5,52.5,30.08,NE,56,1.0,1.0,100,0.00,,,0.00,Wunderground v.1.15,2013-04-05 15:28:00,
2013-04-05 08:33:00,52.8,52.8,30.09,NE,55,0.0,0.0,100,0.00,,,0.00,Wunderground v.1.15,2013-04-05 15:33:00,
2013-04-05 08:38:00,53.2,53.2,30.09,NE,54,0.0,2.0,100,0.00,,,0.00,Wunderground v.1.15,2013-04-05 15:38:00,
2013-04-05 08:43:00,53.5,53.5,30.09,NE,56,0.0,2.0,100,0.00,,,0.00,Wunderground v.1.15,2013-04-05 15:43:00,
2013-04-05 08:48:00,54.1,54.1,30.09,NE,56,0.0,2.0,100,0.00,,,0.00,Wunderground v.1.15,2013-04-05 15:48:00,
2013-04-05 08:53:00,55.1,55.1,30.09,NE,56,0.0,1.0,100,0.00,,,0.00,Wunderground v.1.15,2013-04-05 15:53:00,
2013-04-05 08:58:00,56.0,56.0,30.09,NE,56,0.0,1.0,100,0.00,,,0.00,Wunderground v.1.15,2013-04-05 15:58:00,
2013-04-05 09:03:00,56.5,56.5,30.09,NE,56,0.0,1.0,100,0.00,,,0.00,Wunderground v.1.15,2013-04-05 16:03:00,
2013-04-05 09:08:00,56.0,56.0,30.09,ENE,63,0.0,3.0,100,0.00,,,0.00,Wunderground v.1.15,2013-04-05 16:08:00,
2013-04-05 09:13:00,56.3,56.3,30.09,ENE,63,0.0,1.0,100,0.00,,,0.00,Wunderground v.1.15,2013-04-05 16:13:00,
2013-04-05 09:18:00,57.3,57.3,30.09,ENE,64,1.0,3.0,100,0.00,,,0.00,Wunderground v.1.15,2013-04-05 16:18:00,
2013-04-05 09:23:00,57.8,57.5,30.09,ENE,72,1.0,4.0,99,0.00,,,0.01,Wunderground v.1.15,2013-04-05 16:23:00,
2013-04-05 09:28:00,58.4,57.3,30.09,ENE,72,3.0,4.0,96,0.00,,,0.01,Wunderground v.1.15,2013-04-05 16:28:00,
2013-04-05 09:33:00,58.9,57.2,30.09,ENE,74,1.0,1.0,94,0.00,,,0.01,Wunderground v.1.15,2013-04-05 16:33:00,
2013-04-05 09:38:00,59.6,57.0,30.09,ENE,74,0.0,2.0,91,0.00,,,0.01,Wunderground v.1.15,2013-04-05 16:38:00,
2013-04-05 09:43:00,59.9,56.6,30.09,ENE,73,0.0,5.0,89,0.00,,,0.01,Wunderground v.1.15,2013-04-05 16:43:00,
2013-04-05 09:48:00,59.9,56.3,30.09,NNW,331,0.0,5.0,88,0.00,,,0.01,Wunderground v.1.15,2013-04-05 16:48:00,
2013-04-05 09:53:00,59.2,55.3,30.09,West,265,0.0,3.0,87,0.00,,,0.01,Wunderground v.1.15,2013-04-05 16:53:00,
2013-04-05 09:58:00,58.6,55.4,30.09,West,265,1.0,3.0,89,0.00,,,0.01,Wunderground v.1.15,2013-04-05 16:58:00,
2013-04-05 10:03:00,58.4,55.2,30.09,WSW,257,0.0,2.0,89,0.00,,,0.01,Wunderground v.1.15,2013-04-05 17:03:00,
2013-04-05 10:08:00,58.6,55.4,30.09,WSW,257,0.0,3.0,89,0.00,,,0.01,Wunderground v.1.15,2013-04-05 17:08:00,
2013-04-05 10:13:00,59.0,55.8,30.09,West,276,1.0,4.0,89,0.00,,,0.01,Wunderground v.1.15,2013-04-05 17:13:00,
2013-04-05 10:18:00,59.5,55.6,30.09,WSW,240,0.0,4.0,87,0.00,,,0.01,Wunderground v.1.15,2013-04-05 17:18:00,
2013-04-05 10:23:00,60.2,55.7,30.09,SSW,207,0.0,3.0,85,0.00,,,0.01,Wunderground v.1.15,2013-04-05 17:23:00,
2013-04-05 10:28:00,60.9,56.0,30.09,West,262,2.0,5.0,84,0.00,,,0.01,Wunderground v.1.15,2013-04-05 17:28:00,
2013-04-05 10:33:00,61.0,55.8,30.09,West,259,3.0,3.0,83,0.00,,,0.01,Wunderground v.1.15,2013-04-05 17:33:00,
2013-04-05 10:38:00,61.5,55.6,30.09,SSE,162,0.0,4.0,81,0.00,,,0.01,Wunderground v.1.15,2013-04-05 17:38:00,
2013-04-05 10:43:00,61.8,55.6,30.09,SSE,164,3.0,3.0,80,0.00,,,0.01,Wunderground v.1.15,2013-04-05 17:43:00,
2013-04-05 10:48:00,62.0,55.8,30.09,SSW,194,1.0,3.0,80,0.00,,,0.01,Wunderground v.1.15,2013-04-05 17:48:00,
2013-04-05 10:53:00,62.3,55.7,30.09,SW,214,0.0,3.0,79,0.00,,,0.01,Wunderground v.1.15,2013-04-05 17:53:00,
2013-04-05 10:58:00,62.4,55.4,30.09,WSW,237,1.0,4.0,78,0.00,,,0.01,Wunderground v.1.15,2013-04-05 17:58:00,
2013-04-05 11:03:00,62.0,55.1,30.09,West,276,2.0,5.0,78,0.00,,,0.01,Wunderground v.1.15,2013-04-05 18:03:00,
2013-04-05 11:08:00,61.5,54.9,30.09,SSW,196,2.0,5.0,79,0.00,,,0.01,Wunderground v.1.15,2013-04-05 18:08:00,
2013-04-05 11:13:00,61.6,55.4,30.09,South,190,0.0,3.0,80,0.00,,,0.01,Wunderground v.1.15,2013-04-05 18:13:00,
2013-04-05 11:18:00,62.0,55.4,30.09,South,181,1.0,4.0,79,0.00,,,0.01,Wunderground v.1.15,2013-04-05 18:18:00,
2013-04-05 11:23:00,62.3,55.4,30.09,SE,145,1.0,4.0,78,0.00,,,0.01,Wunderground v.1.15,2013-04-05 18:23:00,
2013-04-05 11:28:00,62.4,55.4,30.09,NNW,330,0.0,4.0,78,0.00,,,0.01,Wunderground v.1.15,2013-04-05 18:28:00,
2013-04-05 11:33:00,62.3,55.4,30.09,West,265,0.0,3.0,78,0.00,,,0.01,Wunderground v.1.15,2013-04-05 18:33:00,
2013-04-05 11:38:00,62.3,55.4,30.09,ESE,110,0.0,7.0,78,0.00,,,0.01,Wunderground v.1.15,2013-04-05 18:38:00,
2013-04-05 11:43:00,62.4,55.8,30.09,SW,220,1.0,3.0,79,0.00,,,0.01,Wunderground v.1.15,2013-04-05 18:43:00,
2013-04-05 11:48:00,61.6,55.0,30.09,NNW,348,5.0,5.0,79,0.00,,,0.01,Wunderground v.1.15,2013-04-05 18:48:00,
2013-04-05 11:53:00,61.2,54.6,30.09,East,82,0.0,7.0,79,0.00,,,0.01,Wunderground v.1.15,2013-04-05 18:53:00,
2013-04-05 11:58:00,61.5,54.9,30.09,SW,215,0.0,7.0,79,0.00,,,0.01,Wunderground v.1.15,2013-04-05 18:58:00,
2013-04-05 12:03:00,61.6,54.7,30.10,East,101,1.0,5.0,78,0.00,,,0.01,Wunderground v.1.15,2013-04-05 19:03:00,
2013-04-05 12:08:00,62.1,54.8,30.10,NW,304,2.0,5.0,77,0.00,,,0.01,Wunderground v.1.15,2013-04-05 19:08:00,
2013-04-05 12:13:00,62.0,54.7,30.10,WNW,295,1.0,6.0,77,0.00,,,0.01,Wunderground v.1.15,2013-04-05 19:13:00,
2013-04-05 12:18:00,61.8,55.2,30.09,North,356,5.0,6.0,79,0.00,,,0.01,Wunderground v.1.15,2013-04-05 19:18:00,
2013-04-05 12:23:00,61.6,55.0,30.09,NW,309,3.0,7.0,79,0.00,,,0.01,Wunderground v.1.15,2013-04-05 19:23:00,
2013-04-05 12:29:00,61.3,55.1,30.09,North,0,4.0,7.0,80,0.00,,,0.01,Wunderground v.1.15,2013-04-05 19:29:00,
2013-04-05 12:34:00,60.5,55.0,30.09,NNE,14,3.0,7.0,82,0.00,,,0.01,Wunderground v.1.15,2013-04-05 19:34:00,
2013-04-05 12:39:00,61.2,55.7,30.09,East,94,0.0,7.0,82,0.00,,,0.01,Wunderground v.1.15,2013-04-05 19:39:00,
2013-04-05 12:44:00,61.8,55.9,30.09,North,2,1.0,7.0,81,0.00,,,0.01,Wunderground v.1.15,2013-04-05 19:44:00,
2013-04-05 12:49:00,61.8,55.9,30.09,SSE,150,2.0,12.0,81,0.00,,,0.01,Wunderground v.1.15,2013-04-05 19:49:00,
2013-04-05 12:54:00,61.6,56.0,30.09,SE,143,4.0,6.0,82,0.00,,,0.01,Wunderground v.1.15,2013-04-05 19:54:00,
2013-04-05 12:59:00,60.7,55.2,30.09,NNE,12,0.0,12.0,82,0.00,,,0.01,Wunderground v.1.15,2013-04-05 19:59:00,
2013-04-05 13:04:00,60.1,55.6,30.09,ESE,110,1.0,7.0,85,0.00,,,0.01,Wunderground v.1.15,2013-04-05 20:04:00,
2013-04-05 13:09:00,59.9,55.7,30.09,SSE,149,0.0,7.0,86,0.00,,,0.01,Wunderground v.1.15,2013-04-05 20:09:00,
2013-04-05 13:14:00,59.6,55.1,30.10,NNW,345,3.0,9.0,85,0.00,,,0.01,Wunderground v.1.15,2013-04-05 20:14:00,
2013-04-05 13:20:00,59.0,55.1,30.10,ESE,111,0.0,10.0,87,0.00,,,0.01,Wunderground v.1.15,2013-04-05 20:20:00,
2013-04-05 13:25:00,58.9,55.0,30.10,SE,136,0.0,11.0,87,0.00,,,0.01,Wunderground v.1.15,2013-04-05 20:25:00,
2013-04-05 13:30:00,58.7,55.2,30.10,NE,46,2.0,11.0,88,0.00,,,0.01,Wunderground v.1.15,2013-04-05 20:30:00,
2013-04-05 13:35:00,59.0,55.4,30.10,SW,228,1.0,5.0,88,0.00,,,0.01,Wunderground v.1.15,2013-04-05 20:35:00,
2013-04-05 13:40:00,59.3,55.1,30.10,East,86,2.0,7.0,86,0.00,,,0.01,Wunderground v.1.15,2013-04-05 20:40:00,
2013-04-05 13:45:00,59.3,55.4,30.09,South,184,2.0,12.0,87,0.00,,,0.01,Wunderground v.1.15,2013-04-05 20:45:00,
2013-04-05 13:50:00,59.5,55.3,30.09,SSW,212,2.0,12.0,86,0.00,,,0.01,Wunderground v.1.15,2013-04-05 20:50:00,
2013-04-05 13:55:00,59.5,55.3,30.09,North,358,1.0,6.0,86,0.00,,,0.01,Wunderground v.1.15,2013-04-05 20:55:00,
2013-04-05 14:00:00,59.6,55.4,30.08,ESE,106,0.0,6.0,86,0.00,,,0.01,Wunderground v.1.15,2013-04-05 21:00:00,
2013-04-05 14:05:00,59.6,55.7,30.08,SE,124,2.0,5.0,87,0.00,,,0.01,Wunderground v.1.15,2013-04-05 21:05:00,
2013-04-05 14:10:00,59.8,55.9,30.08,NNE,29,2.0,5.0,87,0.00,,,0.01,Wunderground v.1.15,2013-04-05 21:10:00,
2013-04-05 14:15:00,60.1,55.9,30.07,ESE,115,0.0,4.0,86,0.00,,,0.01,Wunderground v.1.15,2013-04-05 21:15:00,
2013-04-05 14:20:00,60.2,56.0,30.07,South,171,0.0,5.0,86,0.00,,,0.01,Wunderground v.1.15,2013-04-05 21:20:00,
2013-04-05 14:25:00,60.2,55.7,30.07,North,352,0.0,7.0,85,0.00,,,0.01,Wunderground v.1.15,2013-04-05 21:25:00,
2013-04-05 14:30:00,60.1,55.2,30.06,NNE,12,4.0,9.0,84,0.00,,,0.01,Wunderground v.1.15,2013-04-05 21:30:00,
2013-04-05 14:35:00,60.2,55.7,30.06,SSE,165,2.0,7.0,85,0.00,,,0.01,Wunderground v.1.15,2013-04-05 21:35:00,
2013-04-05 14:40:00,60.7,55.8,30.06,North,353,2.0,7.0,84,0.00,,,0.01,Wunderground v.1.15,2013-04-05 21:40:00,
2013-04-05 14:45:00,60.7,55.5,30.06,SE,124,1.0,7.0,83,0.00,,,0.01,Wunderground v.1.15,2013-04-05 21:45:00,
2013-04-05 14:50:00,60.4,55.2,30.06,North,1,2.0,2.0,83,0.00,,,0.01,Wunderground v.1.15,2013-04-05 21:50:00,
2013-04-05 14:56:00,60.5,55.3,30.06,NE,36,5.0,6.0,83,0.00,,,0.01,Wunderground v.1.15,2013-04-05 21:56:00,
2013-04-05 15:01:00,60.5,55.0,30.06,NE,39,3.0,4.0,82,0.00,,,0.01,Wunderground v.1.15,2013-04-05 22:01:00,
2013-04-05 15:06:00,59.6,54.8,30.06,NNW,342,4.0,11.0,84,0.00,,,0.01,Wunderground v.1.15,2013-04-05 22:06:00,
2013-04-05 15:12:00,58.7,54.5,30.06,North,356,8.0,8.0,86,0.00,,,0.01,Wunderground v.1.15,2013-04-05 22:12:00,
2013-04-05 15:17:00,58.1,54.6,30.06,ESE,110,4.0,8.0,88,0.00,,,0.01,Wunderground v.1.15,2013-04-05 22:17:00,
2013-04-05 15:22:00,57.5,54.3,30.06,SSE,160,1.0,10.0,89,0.00,,,0.01,Wunderground v.1.15,2013-04-05 22:22:00,
2013-04-05 15:27:00,57.2,54.3,30.06,SE,136,3.0,10.0,90,0.00,,,0.01,Wunderground v.1.15,2013-04-05 22:27:00,
2013-04-05 15:32:00,57.3,54.7,30.06,NNE,13,0.0,3.0,91,0.00,,,0.01,Wunderground v.1.15,2013-04-05 22:32:00,
2013-04-05 15:37:00,57.3,54.7,30.06,NE,34,0.0,7.0,91,0.00,,,0.01,Wunderground v.1.15,2013-04-05 22:37:00,
2013-04-05 15:42:00,57.3,54.7,30.06,North,359,3.0,5.0,91,0.00,,,0.01,Wunderground v.1.15,2013-04-05 22:42:00,
2013-04-05 15:47:00,57.3,54.7,30.06,East,98,0.0,7.0,91,0.00,,,0.01,Wunderground v.1.15,2013-04-05 22:47:00,
2013-04-05 15:52:00,57.5,54.9,30.06,East,88,0.0,3.0,91,0.00,,,0.01,Wunderground v.1.15,2013-04-05 22:52:00,
2013-04-05 15:57:00,57.6,55.0,30.06,NE,54,1.0,5.0,91,0.00,,,0.01,Wunderground v.1.15,2013-04-05 22:57:00,
2013-04-05 16:02:00,58.0,55.1,30.05,SW,229,4.0,4.0,90,0.00,,,0.01,Wunderground v.1.15,2013-04-05 23:02:00,
2013-04-05 16:07:00,58.3,55.7,30.05,SW,215,1.0,4.0,91,0.00,,,0.01,Wunderground v.1.15,2013-04-05 23:07:00,
2013-04-05 16:12:00,58.6,55.4,30.05,SSE,153,1.0,4.0,89,0.00,,,0.01,Wunderground v.1.15,2013-04-05 23:12:00,
2013-04-05 16:17:00,58.4,55.2,30.04,NE,51,1.0,7.0,89,0.00,,,0.01,Wunderground v.1.15,2013-04-05 23:17:00,
2013-04-05 16:22:00,58.1,54.9,30.04,East,94,2.0,6.0,89,0.00,,,0.01,Wunderground v.1.15,2013-04-05 23:22:00,
2013-04-05 16:27:00,58.1,55.2,30.04,NNE,13,1.0,6.0,90,0.00,,,0.01,Wunderground v.1.15,2013-04-05 23:27:00,
2013-04-05 16:32:00,57.6,54.4,30.04,West,278,1.0,3.0,89,0.00,,,0.01,Wunderground v.1.15,2013-04-05 23:32:00,
2013-04-05 16:37:00,57.3,54.4,30.04,SW,214,4.0,5.0,90,0.00,,,0.01,Wunderground v.1.15,2013-04-05 23:37:00,
2013-04-05 16:42:00,57.0,54.4,30.04,NE,50,3.0,6.0,91,0.00,,,0.01,Wunderground v.1.15,2013-04-05 23:42:00,
2013-04-05 16:47:00,57.2,54.6,30.04,ESE,114,0.0,6.0,91,0.00,,,0.01,Wunderground v.1.15,2013-04-05 23:47:00,
2013-04-05 16:52:00,57.5,54.9,30.04,NNE,20,1.0,3.0,91,0.00,,,0.01,Wunderground v.1.15,2013-04-05 23:52:00,
2013-04-05 16:57:00,57.6,54.7,30.04,WNW,290,2.0,6.0,90,0.00,,,0.01,Wunderground v.1.15,2013-04-05 23:57:00,
2013-04-05 17:02:00,57.8,54.6,30.04,WSW,245,0.0,2.0,89,0.00,,,0.01,Wunderground v.1.15,2013-04-06 00:02:00,
2013-04-05 17:08:00,58.0,54.8,30.04,East,87,0.0,4.0,89,0.00,,,0.01,Wunderground v.1.15,2013-04-06 00:08:00,
2013-04-05 17:13:00,58.1,54.6,30.04,SSW,212,0.0,10.0,88,0.00,,,0.01,Wunderground v.1.15,2013-04-06 00:13:00,
2013-04-05 17:18:00,58.0,54.2,30.04,SSE,152,1.0,10.0,87,0.00,,,0.01,Wunderground v.1.15,2013-04-06 00:18:00,
2013-04-05 17:23:00,57.6,54.1,30.04,North,0,3.0,10.0,88,0.00,,,0.01,Wunderground v.1.15,2013-04-06 00:23:00,
2013-04-05 17:28:00,57.3,53.8,30.04,North,11,2.0,10.0,88,0.00,,,0.01,Wunderground v.1.15,2013-04-06 00:28:00,
2013-04-05 17:33:00,57.2,54.0,30.03,West,278,1.0,4.0,89,0.00,,,0.01,Wunderground v.1.15,2013-04-06 00:33:00,
2013-04-05 17:38:00,57.2,54.0,30.03,NNE,33,0.0,4.0,89,0.00,,,0.01,Wunderground v.1.15,2013-04-06 00:38:00,
2013-04-05 17:43:00,57.2,54.0,30.03,South,173,1.0,2.0,89,0.00,,,0.01,Wunderground v.1.15,2013-04-06 00:43:00,
2013-04-05 17:48:00,57.0,53.8,30.03,NNE,30,3.0,7.0,89,0.00,,,0.01,Wunderground v.1.15,2013-04-06 00:48:00,
2013-04-05 17:53:00,56.7,53.5,30.03,East,100,0.0,2.0,89,0.00,,,0.01,Wunderground v.1.15,2013-04-06 00:53:00,
2013-04-05 17:58:00,56.7,53.5,30.03,NNW,328,0.0,5.0,89,0.00,,,0.01,Wunderground v.1.15,2013-04-06 00:58:00,
2013-04-05 18:03:00,56.5,53.3,30.03,NNE,27,1.0,6.0,89,0.00,,,0.01,Wunderground v.1.15,2013-04-06 01:03:00,
2013-04-05 18:08:00,56.2,53.3,30.03,North,2,2.0,6.0,90,0.00,,,0.01,Wunderground v.1.15,2013-04-06 01:08:00,
2013-04-05 18:13:00,55.9,53.3,30.03,West,271,0.0,3.0,91,0.00,,,0.01,Wunderground v.1.15,2013-04-06 01:13:00,
2013-04-05 18:18:00,55.6,53.0,30.03,North,1,3.0,5.0,91,0.00,,,0.01,Wunderground v.1.15,2013-04-06 01:18:00,
2013-04-05 18:23:00,55.4,52.8,30.03,East,95,3.0,4.0,91,0.00,,,0.01,Wunderground v.1.15,2013-04-06 01:23:00,
2013-04-05 18:28:00,55.1,52.8,30.03,North,0,3.0,9.0,92,0.00,,,0.01,Wunderground v.1.15,2013-04-06 01:28:00,
2013-04-05 18:33:00,55.0,52.7,30.02,ESE,113,0.0,7.0,92,0.00,,,0.01,Wunderground v.1.15,2013-04-06 01:33:00,
2013-04-05 18:38:00,55.0,53.0,30.02,NW,307,0.0,7.0,93,0.00,,,0.01,Wunderground v.1.15,2013-04-06 01:38:00,
2013-04-05 18:43:00,54.8,52.8,30.02,ENE,74,0.0,2.0,93,0.00,,,0.01,Wunderground v.1.15,2013-04-06 01:43:00,
2013-04-05 18:48:00,54.8,52.8,30.03,NNW,344,5.0,5.0,93,0.00,,,0.01,Wunderground v.1.15,2013-04-06 01:48:00,
2013-04-05 18:53:00,54.7,52.7,30.03,SE,135,5.0,5.0,93,0.00,,,0.01,Wunderground v.1.15,2013-04-06 01:53:00,
2013-04-05 18:58:00,54.7,52.7,30.03,West,266,2.0,5.0,93,0.00,,,0.01,Wunderground v.1.15,2013-04-06 01:58:00,
2013-04-05 19:03:00,54.5,52.5,30.02,North,357,0.0,2.0,93,0.00,,,0.01,Wunderground v.1.15,2013-04-06 02:03:00,
2013-04-05 19:08:00,54.5,52.5,30.02,North,357,0.0,2.0,93,0.00,,,0.01,Wunderground v.1.15,2013-04-06 02:08:00,
2013-04-05 19:13:00,54.4,52.4,30.02,NNE,15,1.0,7.0,93,0.00,,,0.01,Wunderground v.1.15,2013-04-06 02:13:00,
2013-04-05 19:19:00,54.1,52.4,30.03,SSE,158,0.0,7.0,94,0.00,,,0.01,Wunderground v.1.15,2013-04-06 02:19:00,
2013-04-05 19:24:00,54.1,52.4,30.03,South,174,0.0,2.0,94,0.00,,,0.01,Wunderground v.1.15,2013-04-06 02:24:00,
2013-04-05 19:29:00,53.9,52.5,30.03,ENE,62,0.0,3.0,95,0.00,,,0.01,Wunderground v.1.15,2013-04-06 02:29:00,
2013-04-05 19:34:00,53.9,52.5,30.03,SE,135,1.0,3.0,95,0.00,,,0.01,Wunderground v.1.15,2013-04-06 02:34:00,
2013-04-05 19:39:00,53.8,52.7,30.03,NW,313,0.0,7.0,96,0.00,,,0.01,Wunderground v.1.15,2013-04-06 02:39:00,
2013-04-05 19:44:00,53.6,52.5,30.03,East,85,3.0,3.0,96,0.00,,,0.01,Wunderground v.1.15,2013-04-06 02:44:00,
2013-04-05 19:49:00,53.6,52.5,30.03,North,354,0.0,4.0,96,0.00,,,0.01,Wunderground v.1.15,2013-04-06 02:49:00,
2013-04-05 19:54:00,53.5,52.4,30.03,North,349,2.0,8.0,96,0.00,,,0.01,Wunderground v.1.15,2013-04-06 02:54:00,
2013-04-05 19:59:00,53.5,52.4,30.03,NNW,346,2.0,8.0,96,0.00,,,0.01,Wunderground v.1.15,2013-04-06 02:59:00,
2013-04-05 20:05:00,53.3,52.5,30.03,NW,307,0.0,3.0,97,0.00,,,0.01,Wunderground v.1.15,2013-04-06 03:05:00,
2013-04-05 20:10:00,53.3,52.5,30.03,WNW,286,2.0,4.0,97,0.00,,,0.01,Wunderground v.1.15,2013-04-06 03:10:00,
2013-04-05 20:15:00,53.2,52.4,30.03,NNE,28,0.0,2.0,97,0.00,,,0.01,Wunderground v.1.15,2013-04-06 03:15:00,
2013-04-05 20:20:00,53.2,52.4,30.03,West,278,1.0,3.0,97,0.00,,,0.01,Wunderground v.1.15,2013-04-06 03:20:00,
2013-04-05 20:25:00,53.1,52.3,30.03,WSW,239,1.0,4.0,97,0.00,,,0.01,Wunderground v.1.15,2013-04-06 03:25:00,
2013-04-05 20:30:00,53.1,52.6,30.02,WSW,252,0.0,4.0,98,0.00,,,0.01,Wunderground v.1.15,2013-04-06 03:30:00,
2013-04-05 20:35:00,52.9,52.4,30.02,WNW,283,4.0,6.0,98,0.00,,,0.01,Wunderground v.1.15,2013-04-06 03:35:00,
2013-04-05 20:40:00,52.9,52.4,30.02,West,271,0.0,0.0,98,0.00,,,0.01,Wunderground v.1.15,2013-04-06 03:40:00,
2013-04-05 20:45:00,52.9,52.4,30.03,SSW,197,5.0,5.0,98,0.00,,,0.01,Wunderground v.1.15,2013-04-06 03:45:00,
2013-04-05 20:50:00,52.8,52.3,30.03,SE,137,1.0,1.0,98,0.00,,,0.01,Wunderground v.1.15,2013-04-06 03:50:00,
2013-04-05 20:55:00,52.8,52.5,30.03,North,354,2.0,4.0,99,0.00,,,0.01,Wunderground v.1.15,2013-04-06 03:55:00,
2013-04-05 21:00:00,52.9,52.6,30.05,NNE,20,0.0,4.0,99,0.00,,,0.01,Wunderground v.1.15,2013-04-06 04:00:00,
2013-04-05 21:05:00,52.8,52.5,30.05,NW,315,3.0,3.0,99,0.00,,,0.01,Wunderground v.1.15,2013-04-06 04:05:00,
2013-04-05 21:10:00,52.9,52.6,30.05,ESE,113,1.0,2.0,99,0.00,,,0.01,Wunderground v.1.15,2013-04-06 04:10:00,
2013-04-05 21:15:00,52.9,52.6,30.06,NNW,340,0.0,2.0,99,0.00,,,0.01,Wunderground v.1.15,2013-04-06 04:15:00,
2013-04-05 21:20:00,52.9,52.6,30.06,NNW,340,0.0,0.0,99,0.00,,,0.01,Wunderground v.1.15,2013-04-06 04:20:00,
2013-04-05 21:25:00,52.8,52.5,30.06,NNW,346,0.0,1.0,99,0.00,,,0.01,Wunderground v.1.15,2013-04-06 04:25:00,
2013-04-05 21:30:00,52.8,52.5,30.07,SSE,155,0.0,0.0,99,0.00,,,0.01,Wunderground v.1.15,2013-04-06 04:30:00,
2013-04-05 21:35:00,52.6,52.3,30.07,WSW,245,0.0,3.0,99,0.00,,,0.01,Wunderground v.1.15,2013-04-06 04:35:00,
2013-04-05 21:40:00,52.6,52.3,30.07,WSW,245,0.0,0.0,99,0.00,,,0.01,Wunderground v.1.15,2013-04-06 04:40:00,
2013-04-05 21:45:00,52.5,52.2,30.07,WSW,245,0.0,0.0,99,0.00,,,0.01,Wunderground v.1.15,2013-04-06 04:45:00,
2013-04-05 21:51:00,52.5,52.5,30.07,WSW,248,0.0,0.0,100,0.00,,,0.01,Wunderground v.1.15,2013-04-06 04:51:00,
2013-04-05 21:56:00,52.5,52.5,30.07,WSW,248,0.0,1.0,100,0.00,,,0.01,Wunderground v.1.15,2013-04-06 04:56:00,
2013-04-05 22:01:00,52.3,52.3,30.07,WSW,248,0.0,0.0,100,0.00,,,0.01,Wunderground v.1.15,2013-04-06 05:01:00,
2013-04-05 22:05:00,52.2,52.2,30.07,WSW,248,0.0,0.0,100,0.00,,,0.01,Wunderground v.1.15,2013-04-06 05:05:00,
2013-04-05 22:10:00,52.0,52.0,30.07,WSW,248,0.0,0.0,100,0.00,,,0.01,Wunderground v.1.15,2013-04-06 05:10:00,
2013-04-05 22:15:00,51.7,51.7,30.07,WSW,248,0.0,0.0,100,0.00,,,0.01,Wunderground v.1.15,2013-04-06 05:15:00,
2013-04-05 22:20:00,51.6,51.6,30.07,WSW,248,0.0,0.0,100,0.00,,,0.01,Wunderground v.1.15,2013-04-06 05:20:00,
2013-04-05 22:26:00,51.4,51.4,30.07,WSW,248,0.0,0.0,100,0.00,,,0.01,Wunderground v.1.15,2013-04-06 05:26:00,
2013-04-05 22:31:00,51.1,51.1,30.07,WSW,248,0.0,0.0,100,0.00,,,0.01,Wunderground v.1.15,2013-04-06 05:31:00,
2013-04-05 22:36:00,51.0,51.0,30.07,WSW,248,0.0,0.0,100,0.00,,,0.01,Wunderground v.1.15,2013-04-06 05:36:00,
2013-04-05 22:41:00,50.8,50.8,30.07,WSW,248,0.0,0.0,100,0.00,,,0.01,Wunderground v.1.15,2013-04-06 05:41:00,
2013-04-05 22:46:00,50.8,50.8,30.08,WSW,248,0.0,0.0,100,0.00,,,0.01,Wunderground v.1.15,2013-04-06 05:46:00,
2013-04-05 22:51:00,50.7,50.7,30.08,WSW,248,0.0,0.0,100,0.00,,,0.01,Wunderground v.1.15,2013-04-06 05:51:00,
2013-04-05 22:56:00,50.7,50.7,30.08,WSW,248,0.0,0.0,100,0.00,,,0.01,Wunderground v.1.15,2013-04-06 05:56:00,
2013-04-05 23:01:00,50.7,50.7,30.08,WSW,248,0.0,0.0,100,0.00,,,0.01,Wunderground v.1.15,2013-04-06 06:01:00,
2013-04-05 23:06:00,50.7,50.7,30.08,WSW,248,0.0,0.0,100,0.00,,,0.01,Wunderground v.1.15,2013-04-06 06:06:00,
2013-04-05 23:11:00,50.5,50.5,30.08,WSW,248,0.0,0.0,100,0.00,,,0.01,Wunderground v.1.15,2013-04-06 06:11:00,
2013-04-05 23:16:00,50.5,50.5,30.08,WSW,248,0.0,0.0,100,0.00,,,0.01,Wunderground v.1.15,2013-04-06 06:16:00,
2013-04-05 23:21:00,50.5,50.5,30.08,WSW,248,0.0,0.0,100,0.00,,,0.01,Wunderground v.1.15,2013-04-06 06:21:00,
2013-04-05 23:26:00,50.4,50.4,30.08,WSW,248,0.0,0.0,100,0.00,,,0.01,Wunderground v.1.15,2013-04-06 06:26:00,
2013-04-05 23:31:00,50.2,50.2,30.08,WSW,248,0.0,0.0,100,0.00,,,0.01,Wunderground v.1.15,2013-04-06 06:31:00,
2013-04-05 23:37:00,50.2,50.2,30.08,WSW,248,0.0,0.0,100,0.00,,,0.01,Wunderground v.1.15,2013-04-06 06:37:00,
2013-04-05 23:42:00,50.1,50.1,30.08,WSW,248,0.0,0.0,100,0.00,,,0.01,Wunderground v.1.15,2013-04-06 06:42:00,
2013-04-05 23:47:00,49.8,49.8,30.09,WSW,248,0.0,0.0,100,0.00,,,0.01,Wunderground v.1.15,2013-04-06 06:47:00,
2013-04-05 23:52:00,49.8,49.8,30.09,WSW,248,0.0,0.0,100,0.00,,,0.01,Wunderground v.1.15,2013-04-06 06:52:00,
2013-04-05 23:57:00,49.6,49.6,30.09,WSW,248,0.0,0.0,100,0.00,,,0.01,Wunderground v.1.15,2013-04-06 06:57:00,